Time,TemperatureF,DewpointF,PressureIn,WindDirection,WindDirectionDegrees,WindSpeedMPH,WindSpeedGustMPH,Humidity,HourlyPrecipIn,Conditions,Clouds,dailyrainin,SoftwareType,DateUTC
2013-02-16 00:02:00,21.9,11.0,30.41,NW,311,20.0,36.0,63,0.00,,,0.00,weatherlink.com 1.10,2013-02-16 07:02:00,
2013-02-16 00:17:00,22.1,11.0,30.40,WSW,240,10.0,38.0,63,0.00,,,0.00,weatherlink.com 1.10,2013-02-16 07:17:00,
2013-02-16 00:32:00,22.1,11.0,30.39,SW,224,16.0,45.0,63,0.00,,,0.00,weatherlink.com 1.10,2013-02-16 07:32:00,
2013-02-16 00:47:00,22.1,11.0,30.41,West,267,17.0,37.0,62,0.00,,,0.00,weatherlink.com 1.10,2013-02-16 07:47:00,
2013-02-16 01:02:00,22.4,10.0,30.43,West,264,9.0,39.0,60,0.00,,,0.00,weatherlink.com 1.10,2013-02-16 08:02:00,
2013-02-16 01:17:00,22.6,11.0,30.44,WSW,244,11.0,46.0,60,0.00,,,0.00,weatherlink.com 1.10,2013-02-16 08:17:00,
2013-02-16 01:32:00,22.7,10.0,30.44,SW,217,15.0,31.0,59,0.00,,,0.00,weatherlink.com 1.10,2013-02-16 08:32:00,
2013-02-16 01:47:00,22.7,10.0,30.46,WNW,284,9.0,34.0,59,0.00,,,0.00,weatherlink.com 1.10,2013-02-16 08:47:00,
2013-02-16 02:02:00,22.7,10.0,30.47,WNW,293,18.0,30.0,59,0.00,,,0.00,weatherlink.com 1.10,2013-02-16 09:02:00,
2013-02-16 02:17:00,22.7,10.0,30.47,West,280,6.0,26.0,58,0.00,,,0.00,weatherlink.com 1.10,2013-02-16 09:17:00,
2013-02-16 02:32:00,22.4,10.0,30.48,WSW,237,14.0,20.0,59,0.00,,,0.00,weatherlink.com 1.10,2013-02-16 09:32:00,
2013-02-16 02:47:00,22.6,9.0,30.48,SW,217,7.0,26.0,57,0.00,,,0.00,weatherlink.com 1.10,2013-02-16 09:47:00,
2013-02-16 03:02:00,22.8,9.0,30.48,South,185,9.0,24.0,56,0.00,,,0.00,weatherlink.com 1.10,2013-02-16 10:02:00,
2013-02-16 03:17:00,22.8,9.0,30.46,SW,236,8.0,20.0,55,0.00,,,0.00,weatherlink.com 1.10,2013-02-16 10:17:00,
2013-02-16 03:32:00,22.7,9.0,30.45,West,263,5.0,21.0,55,0.00,,,0.00,weatherlink.com 1.10,2013-02-16 10:32:00,
2013-02-16 03:47:00,22.6,9.0,30.43,West,273,3.0,14.0,55,0.00,,,0.00,weatherlink.com 1.10,2013-02-16 10:47:00,
2013-02-16 04:02:00,22.4,8.0,30.43,SW,218,4.0,19.0,55,0.00,,,0.00,weatherlink.com 1.10,2013-02-16 11:02:00,
2013-02-16 04:17:00,22.7,8.0,30.42,SW,218,3.0,19.0,54,0.00,,,0.00,weatherlink.com 1.10,2013-02-16 11:17:00,
2013-02-16 04:32:00,22.7,8.0,30.41,SW,225,14.0,18.0,54,0.00,,,0.00,weatherlink.com 1.10,2013-02-16 11:32:00,
2013-02-16 04:47:00,23.2,8.0,30.40,SW,233,10.0,29.0,53,0.00,,,0.00,weatherlink.com 1.10,2013-02-16 11:47:00,
2013-02-16 05:02:00,23.3,8.0,30.40,West,265,10.0,41.0,52,0.00,,,0.00,weatherlink.com 1.10,2013-02-16 12:02:00,
2013-02-16 05:17:00,23.5,8.0,30.41,West,277,4.0,30.0,52,0.00,,,0.00,weatherlink.com 1.10,2013-02-16 12:17:00,
2013-02-16 05:32:00,23.6,9.0,30.41,WSW,246,11.0,34.0,53,0.00,,,0.00,weatherlink.com 1.10,2013-02-16 12:32:00,
2013-02-16 05:47:00,23.6,9.0,30.41,NNW,342,17.0,23.0,53,0.00,,,0.00,weatherlink.com 1.10,2013-02-16 12:47:00,
2013-02-16 06:03:00,23.6,8.0,30.40,NNW,327,9.0,27.0,52,0.00,,,0.00,weatherlink.com 1.10,2013-02-16 13:03:00,
2013-02-16 06:17:00,23.4,8.0,30.41,WSW,248,12.0,23.0,53,0.00,,,0.00,weatherlink.com 1.10,2013-02-16 13:17:00,
2013-02-16 06:33:00,23.8,8.0,30.39,SSW,193,7.0,34.0,52,0.00,,,0.00,weatherlink.com 1.10,2013-02-16 13:33:00,
2013-02-16 06:48:00,23.8,8.0,30.39,SW,236,20.0,36.0,52,0.00,,,0.00,weatherlink.com 1.10,2013-02-16 13:48:00,
2013-02-16 07:03:00,23.7,9.0,30.39,West,265,16.0,32.0,53,0.00,,,0.00,weatherlink.com 1.10,2013-02-16 14:03:00,
2013-02-16 07:18:00,24.0,9.0,30.38,West,273,17.0,33.0,52,0.00,,,0.00,weatherlink.com 1.10,2013-02-16 14:18:00,
2013-02-16 07:33:00,24.9,9.0,30.39,SW,226,11.0,35.0,51,0.00,,,0.00,weatherlink.com 1.10,2013-02-16 14:33:00,
2013-02-16 07:48:00,25.5,9.0,30.38,WSW,253,12.0,33.0,50,0.00,,,0.00,weatherlink.com 1.10,2013-02-16 14:48:00,
2013-02-16 08:03:00,26.4,9.0,30.38,West,270,11.0,33.0,49,0.00,,,0.00,weatherlink.com 1.10,2013-02-16 15:03:00,
2013-02-16 08:18:00,27.1,10.0,30.37,SW,235,12.0,33.0,48,0.00,,,0.00,weatherlink.com 1.10,2013-02-16 15:18:00,
2013-02-16 08:33:00,27.5,10.0,30.37,WSW,250,17.0,38.0,48,0.00,,,0.00,weatherlink.com 1.10,2013-02-16 15:33:00,
2013-02-16 08:48:00,27.8,10.0,30.35,WSW,246,13.0,35.0,48,0.00,,,0.00,weatherlink.com 1.10,2013-02-16 15:48:00,
2013-02-16 09:03:00,28.5,10.0,30.36,SSW,196,11.0,42.0,47,0.00,,,0.00,weatherlink.com 1.10,2013-02-16 16:03:00,
2013-02-16 09:18:00,28.7,11.0,30.35,WNW,282,15.0,37.0,47,0.00,,,0.00,weatherlink.com 1.10,2013-02-16 16:18:00,
2013-02-16 09:33:00,29.4,11.0,30.34,WSW,248,19.0,38.0,47,0.00,,,0.00,weatherlink.com 1.10,2013-02-16 16:33:00,
2013-02-16 09:48:00,29.9,11.0,30.34,NW,310,18.0,38.0,45,0.00,,,0.00,weatherlink.com 1.10,2013-02-16 16:48:00,
2013-02-16 10:03:00,30.1,11.0,30.32,West,273,34.0,48.0,46,0.00,,,0.00,weatherlink.com 1.10,2013-02-16 17:03:00,
2013-02-16 10:18:00,30.4,11.0,30.35,WNW,288,24.0,41.0,45,0.00,,,0.00,weatherlink.com 1.10,2013-02-16 17:18:00,
2013-02-16 10:33:00,30.5,11.0,30.35,West,273,21.0,38.0,45,0.00,,,0.00,weatherlink.com 1.10,2013-02-16 17:33:00,
2013-02-16 10:48:00,31.0,12.0,30.33,West,259,16.0,37.0,45,0.00,,,0.00,weatherlink.com 1.10,2013-02-16 17:48:00,
2013-02-16 11:03:00,31.7,12.0,30.31,WNW,285,9.0,34.0,44,0.00,,,0.00,weatherlink.com 1.10,2013-02-16 18:03:00,
2013-02-16 11:18:00,31.7,12.0,30.32,NW,322,16.0,40.0,45,0.00,,,0.00,weatherlink.com 1.10,2013-02-16 18:18:00,
2013-02-16 11:33:00,31.8,13.0,30.31,WSW,244,15.0,40.0,45,0.00,,,0.00,weatherlink.com 1.10,2013-02-16 18:33:00,
2013-02-16 11:48:00,32.3,12.0,30.32,SW,219,11.0,36.0,44,0.00,,,0.00,weatherlink.com 1.10,2013-02-16 18:48:00,
2013-02-16 12:03:00,33.1,13.0,30.30,WNW,288,34.0,40.0,44,0.00,,,0.00,weatherlink.com 1.10,2013-02-16 19:03:00,
2013-02-16 12:18:00,32.9,13.0,30.28,SW,235,17.0,47.0,44,0.00,,,0.00,weatherlink.com 1.10,2013-02-16 19:18:00,
2013-02-16 12:33:00,33.1,13.0,30.28,WNW,291,17.0,38.0,43,0.00,,,0.00,weatherlink.com 1.10,2013-02-16 19:33:00,
2013-02-16 12:48:00,33.2,13.0,30.26,SW,231,17.0,40.0,43,0.00,,,0.00,weatherlink.com 1.10,2013-02-16 19:48:00,
2013-02-16 13:03:00,33.5,13.0,30.25,West,280,38.0,41.0,42,0.00,,,0.00,weatherlink.com 1.10,2013-02-16 20:03:00,
2013-02-16 13:19:00,33.8,12.0,30.25,WSW,256,14.0,41.0,41,0.00,,,0.00,weatherlink.com 1.10,2013-02-16 20:19:00,
2013-02-16 13:34:00,33.9,12.0,30.23,SW,231,13.0,43.0,41,0.00,,,0.00,weatherlink.com 1.10,2013-02-16 20:34:00,
2013-02-16 13:49:00,33.9,13.0,30.22,NW,306,24.0,42.0,42,0.00,,,0.00,weatherlink.com 1.10,2013-02-16 20:49:00,
2013-02-16 14:04:00,33.9,12.0,30.23,NW,319,11.0,34.0,41,0.00,,,0.00,weatherlink.com 1.10,2013-02-16 21:04:00,
2013-02-16 14:19:00,34.8,13.0,30.23,WNW,289,15.0,36.0,40,0.00,,,0.00,weatherlink.com 1.10,2013-02-16 21:19:00,
2013-02-16 14:34:00,34.9,12.0,30.23,NW,326,8.0,28.0,39,0.00,,,0.00,weatherlink.com 1.10,2013-02-16 21:34:00,
2013-02-16 14:49:00,34.8,12.0,30.25,WNW,295,12.0,24.0,39,0.00,,,0.00,weatherlink.com 1.10,2013-02-16 21:49:00,
2013-02-16 15:04:00,34.9,11.0,30.25,SW,229,14.0,25.0,38,0.00,,,0.00,weatherlink.com 1.10,2013-02-16 22:04:00,
2013-02-16 15:19:00,35.0,11.0,30.25,NW,318,9.0,26.0,37,0.00,,,0.00,weatherlink.com 1.10,2013-02-16 22:19:00,
2013-02-16 15:34:00,35.4,11.0,30.27,NW,316,2.0,20.0,37,0.00,,,0.00,weatherlink.com 1.10,2013-02-16 22:34:00,
2013-02-16 15:49:00,36.6,11.0,30.26,WSW,240,7.0,10.0,35,0.00,,,0.00,weatherlink.com 1.10,2013-02-16 22:49:00,
2013-02-16 16:04:00,36.0,11.0,30.25,ESE,108,8.0,10.0,35,0.00,,,0.00,weatherlink.com 1.10,2013-02-16 23:04:00,
2013-02-16 16:19:00,36.2,11.0,30.24,NE,47,5.0,6.0,35,0.00,,,0.00,weatherlink.com 1.10,2013-02-16 23:19:00,
2013-02-16 16:34:00,35.7,10.0,30.23,ESE,122,6.0,9.0,35,0.00,,,0.00,weatherlink.com 1.10,2013-02-16 23:34:00,
2013-02-16 16:49:00,35.4,10.0,30.23,SSE,153,3.0,18.0,35,0.00,,,0.00,weatherlink.com 1.10,2013-02-16 23:49:00,
2013-02-16 17:04:00,35.1,10.0,30.23,SSE,165,6.0,13.0,36,0.00,,,0.00,weatherlink.com 1.10,2013-02-17 00:04:00,
2013-02-16 17:19:00,33.7,9.0,30.24,SE,127,12.0,17.0,36,0.00,,,0.00,weatherlink.com 1.10,2013-02-17 00:19:00,
2013-02-16 17:34:00,32.1,10.0,30.24,SE,127,1.0,19.0,40,0.00,,,0.00,weatherlink.com 1.10,2013-02-17 00:34:00,
2013-02-16 17:49:00,31.4,10.0,30.23,SE,143,4.0,11.0,41,0.00,,,0.00,weatherlink.com 1.10,2013-02-17 00:49:00,
2013-02-16 18:04:00,30.5,10.0,30.22,ESE,121,6.0,9.0,43,0.00,,,0.00,weatherlink.com 1.10,2013-02-17 01:04:00,
2013-02-16 18:19:00,29.9,11.0,30.22,WSW,257,3.0,6.0,45,0.00,,,0.00,weatherlink.com 1.10,2013-02-17 01:19:00,
2013-02-16 18:34:00,29.4,11.0,30.21,SE,125,2.0,9.0,47,0.00,,,0.00,weatherlink.com 1.10,2013-02-17 01:34:00,
2013-02-16 18:49:00,29.8,12.0,30.20,ESE,122,3.0,13.0,47,0.00,,,0.00,weatherlink.com 1.10,2013-02-17 01:49:00,
2013-02-16 19:04:00,30.3,11.0,30.21,East,98,0.0,9.0,45,0.00,,,0.00,weatherlink.com 1.10,2013-02-17 02:04:00,
2013-02-16 19:19:00,30.3,11.0,30.20,ESE,103,4.0,8.0,44,0.00,,,0.00,weatherlink.com 1.10,2013-02-17 02:19:00,
2013-02-16 19:34:00,29.9,10.0,30.20,ESE,112,3.0,10.0,44,0.00,,,0.00,weatherlink.com 1.10,2013-02-17 02:34:00,
2013-02-16 19:50:00,29.8,10.0,30.19,East,93,6.0,9.0,44,0.00,,,0.00,weatherlink.com 1.10,2013-02-17 02:50:00,
2013-02-16 20:04:00,29.6,10.0,30.19,SSE,149,3.0,9.0,44,0.00,,,0.00,weatherlink.com 1.10,2013-02-17 03:04:00,
2013-02-16 20:19:00,28.9,10.0,30.18,South,179,1.0,7.0,45,0.00,,,0.00,weatherlink.com 1.10,2013-02-17 03:19:00,
2013-02-16 20:34:00,28.9,9.0,30.17,SW,236,2.0,11.0,44,0.00,,,0.00,weatherlink.com 1.10,2013-02-17 03:34:00,
2013-02-16 20:49:00,29.5,9.0,30.16,SW,226,8.0,19.0,42,0.00,,,0.00,weatherlink.com 1.10,2013-02-17 03:49:00,
2013-02-16 21:04:00,29.4,9.0,30.16,SW,236,10.0,19.0,42,0.00,,,0.00,weatherlink.com 1.10,2013-02-17 04:04:00,
2013-02-16 21:19:00,29.0,9.0,30.16,SSW,203,7.0,21.0,43,0.00,,,0.00,weatherlink.com 1.10,2013-02-17 04:19:00,
2013-02-16 21:34:00,28.9,8.0,30.16,WSW,243,14.0,18.0,42,0.00,,,0.00,weatherlink.com 1.10,2013-02-17 04:34:00,
2013-02-16 21:49:00,30.1,7.0,30.17,SW,235,12.0,22.0,38,0.00,,,0.00,weatherlink.com 1.10,2013-02-17 04:49:00,
2013-02-16 22:04:00,31.5,5.0,30.15,WNW,294,8.0,30.0,33,0.00,,,0.00,weatherlink.com 1.10,2013-02-17 05:04:00,
2013-02-16 22:19:00,31.3,6.0,30.16,WNW,285,11.0,26.0,34,0.00,,,0.00,weatherlink.com 1.10,2013-02-17 05:19:00,
2013-02-16 22:34:00,30.9,5.0,30.15,WNW,282,18.0,18.0,33,0.00,,,0.00,weatherlink.com 1.10,2013-02-17 05:34:00,
2013-02-16 22:49:00,30.6,5.0,30.14,West,259,8.0,19.0,34,0.00,,,0.00,weatherlink.com 1.10,2013-02-17 05:49:00,
2013-02-16 23:04:00,30.4,5.0,30.14,West,265,7.0,17.0,34,0.00,,,0.00,weatherlink.com 1.10,2013-02-17 06:04:00,
2013-02-16 23:19:00,30.9,5.0,30.13,ESE,117,5.0,15.0,33,0.00,,,0.00,weatherlink.com 1.10,2013-02-17 06:19:00,
2013-02-16 23:34:00,30.8,5.0,30.12,SSE,148,5.0,18.0,33,0.00,,,0.00,weatherlink.com 1.10,2013-02-17 06:34:00,
2013-02-16 23:49:00,30.1,5.0,30.12,South,186,3.0,12.0,34,0.00,,,0.00,weatherlink.com 1.10,2013-02-17 06:49:00,